Miscellaneous Local Product
Issued by NWS Hastings, NE

Home | Current Version | Previous Version | Text Only | Print | Product List | Glossary Off
Versions: 1 2 3 4 5 6 7 8 9 10 11 12 13 14 15 16 17 18 19 20 21 22 23 24 25 26 27 28 29 30 31 32 33 34 35 36 37 38 39 40 41 42 43 44 45 46 47 48 49 50

000
AXUS43 KGID 021002
MISGRI

GID CWA HOURLY WEATHER ROUNDUP
NATIONAL WEATHER SERVICE HASTINGS NE
500 AM CDT TUE SEP 02 2014

NOTE: "FAIR" INDICATES FEW OR NO CLOUDS BELOW 12,000 FEET WITH NO
SIGNIFICANT WEATHER AND/OR OBSTRUCTIONS TO VISIBILITY.

...SOUTH CENTRAL NEBRASKA...

CITY           SKY/WX    TMP DP  RH WIND       PRES   REMARKS
GRAND ISLAND   CLEAR     54  52  93 SW8       29.99F
HASTINGS       CLEAR     55  51  86 NW3       29.99F
KEARNEY        CLEAR     54  52  94 W5        30.01F
ORD            CLEAR     50  49  96 CALM      29.98F
YORK           CLEAR     54 N/A N/A CALM      29.99S
AURORA         CLEAR     53  53 100 W5        29.99S
LEXINGTON      CLEAR     51  50  96 SW3       30.01F
HOLDREGE       CLEAR     54  53  95 CALM      30.00F
HEBRON         CLEAR     56  53  90 CALM      29.98F

...NEBRASKA PANHANDLE...

CITY           SKY/WX    TMP DP  RH WIND       PRES   REMARKS
CHADRON        CLEAR     46  43  89 SW5       30.03S
ALLIANCE       CLEAR     41  40  96 W3        30.06F
SCOTTSBLUFF    CLEAR     45  44  97 CALM      30.07F
SIDNEY         CLEAR     43  40  89 W6        30.10R

...WESTERN AND NORTH CENTRAL NEBRASKA...

CITY           SKY/WX    TMP DP  RH WIND       PRES   REMARKS
VALENTINE      CLEAR     49  47  93 SW3       30.01S
AINSWORTH      CLEAR     50  48  92 W8        30.01S
ONEILL         CLEAR     54  53  98 W7        29.98R
BROKEN BOW     CLEAR     53  51  93 NW8       30.00F
IMPERIAL       CLEAR     54  50  86 CALM      30.04F
NORTH PLATTE   FOG       47  46  97 CALM      30.03F VSB 1
MCCOOK         CLEAR     56  54  93 SW3       30.02F

...EASTERN NEBRASKA...

CITY           SKY/WX    TMP DP  RH WIND       PRES   REMARKS
NORFOLK        CLEAR     56  54  93 W6        29.95S
SO SIOUX CITY  CLEAR     55  54  96 CALM      29.94
TEKAMAH        CLEAR     57  55  93 NW6       29.94F
ALBION         CLEAR     54  52  94 NW9       29.96F
OMAHA EPPLEY   CLEAR     59  56  89 N6        29.95R
OFFUTT AFB     CLEAR     60  59  99 W3        29.95R
MILLARD        CLEAR     60  57  92 CALM      29.95R
LINCOLN        CLEAR     59  55  87 NW5       29.98R
NEBRASKA CITY  CLEAR     59  59 100 W6        29.95R
BEATRICE       CLEAR     56  56  99 SW6       29.96S
FALLS CITY     CLEAR     61  60  97 SW6       29.92R

...NORTHERN KANSAS...

CITY           SKY/WX    TMP DP  RH WIND       PRES   REMARKS
GOODLAND       CLEAR     55  53  93 E6        30.06S
HILL CITY      CLEAR     60  56  86 N10       29.99F
NORTON         SUNNY     54  50  87 CALM      30.00F
PHILLIPSBURG   CLEAR     57  57 100 N6        29.99F
SMITH CENTER   CLEAR     57  54  88 NE6       29.99S
HAYS           PTCLDY    63  55  77 NE10      29.96S
RUSSELL        PTCLDY    61  59  93 NE8       29.95F
CONCORDIA      CLEAR     60  58  92 CALM      29.95F
SALINA         MOCLDY    68  63  84 NE6       29.96S
TOPEKA         FOG       67  67 100 CALM      29.91F VSB 1/2



USA.gov is the U.S. government's official web portal to all federal, state and local government web resources and services.